World > North America > United States > Mississippi > Amistead

Amistead, MS Hourly Weather Conditions

Feedback E-mail the Weather

Quick WX

Amistead, MS Weather Maps

°F °C°F °C
Amistead Weather Map
UTC Time: 12/7/2022, 03:40
Your Time:

Amistead, MS Regional Weather

Expires:202212070400;;428695
ASUS44 KJAN 070310
RWRMS 

MISSISSIPPI HOURLY WEATHER ROUNDUP
NATIONAL WEATHER SERVICE JACKSON MS
900 PM CST TUE DEC 06 2022

NOTE: "FAIR: INDICATES FEW OR NO CLOUDS BELOW 12,000 FEET WITH NO
SIGNIFICANT WEATHER AND/OR OBSTRUCTIONS TO VISIBILITY.


MSZ001>002-007>008-010>013-018>021-025>028-034>036-070400-
NORTHWEST MISSISSIPPI
  
CITY           SKY/WX    TMP DP  RH WIND       PRES   REMARKS
BATESVILLE     CLOUDY    66  64  94 CALM      30.05S FOG              
CLARKSDALE     CLOUDY    68  68 100 S5        30.05R                  
CLEVELAND      CLOUDY    70  65  84 S10       30.04S                  
GREENWOOD      CLOUDY    72  64  76 S7        30.06R                  
GREENVILLE     CLOUDY    73  64  73 S9        30.03S                  
OXFORD         CLOUDY    64  64 100 SE6       30.08S                  
TUNICA         CLOUDY    68  68 100 S9        30.04R                  
WINONA         MOCLDY    63  62  94 CALM      30.08S                  
$$


SKY/WX - Weather  TMP - Temperature  DP - Dew Point  RH - Humidity
WIND - Wind Direction/Speed PRES - Barometric Pressure VSB - Visibility
WCI - Wind Chill Index E13G22 Wind - East Wind 13 mph/Gusts of 22 mph

Trending Headlines

Trending Entertainment Headlines

Amistead Radar Loop

Use the map search tool if you want to place a location marker on the radar map...

Amistead Quick Facts

National Two Day Weather Forecast


E-mail the Amistead Weather Forecast

Voice your opinion or tell us about page issues...